[[{"header":{"parameterUnit":"m.s-1","parameterCategory":2,"la1":30.2991,"la2":30.254,"lo1":-89.0895,"lo2":-89.0444,"dy":0.0017,"dx":0.0017,"nx":28,"ny":28,"refTime":"2025-11-06T03:00:00:Z","depth":"0","parameterNumber":2,"parameterNumberName":"U-component_of_CURRENTS"},"data":[0,0,0,0,0,0,0,0,0,0,0,0,0,0,0,0,0,0,0,0,0,0,0,0,0,0,0,0,0,0,0,0,0,0,0,0,0,0,0,0,0,0,0,0,0,0,0,0,0,0,0,0,0,0,0,0,0,0,0.2719,0.2719,0,0.2699,0.2698,0.2698,0.2673,0.2672,0.2672,0.2672,0.2663,0.2663,0.2663,0,0,0,0,0,0,0,0,0,0,0,0,0,0.2758,0.2757,0.2719,0.2719,0.2719,0.2699,0.2698,0.2698,0.2673,0.2672,0.2672,0.2672,0.2663,0.2663,0.2663,0,0,0,0,0,0,0,0,0,0,0,0,0,0.2738,0.2757,0.2719,0.2705,0.2703,0.2699,0.2698,0.2698,0.2673,0.2672,0.2672,0.2672,0.2663,0.2663,0.2663,0.2672,0,0,0.2664,0.2664,0,0,0,0,0,0,0,0,0.2739,0.2737,0.2707,0.2706,0.2704,0.2689,0.2709,0.269,0.2673,0.2683,0.2672,0.2671,0.2674,0.2673,0.2668,0.2672,0.2671,0.2664,0.2664,0.2664,0.2664,0,0,0,0,0,0,0,0.2741,0.2738,0.271,0.2707,0.2705,0.2707,0.2703,0.2705,0.2681,0.2682,0.2681,0.268,0.2673,0.2668,0.2668,0.2671,0.2664,0.2664,0.2664,0.2664,0.272,0.2721,0,0,0,0,0,0,0.2745,0.2739,0.271,0.2709,0.2723,0.2706,0.2702,0.2693,0.268,0.2678,0.2681,0.2679,0.2668,0.2668,0.2668,0.271,0.2664,0.2664,0.2664,0.2718,0.272,0.2722,0,0,0,0,0,0,0.2746,0.2742,0.2711,0.2725,0.2721,0.2706,0.2696,0.2693,0.2692,0.2679,0.2677,0.2683,0.2668,0.2668,0.2677,0.2708,0.2664,0.2664,0.2717,0.2719,0.2721,0.2773,0,0,0,0,0,0,0.2747,0.2742,0.2742,0.2725,0.2721,0.2718,0.2697,0.2693,0.2693,0.2691,0.2681,0.2679,0.2668,0.2677,0.2677,0.2707,0.2664,0.2715,0.2718,0.272,0.277,0.2777,0.2783,0,0,0,0,0,0.2748,0.2749,0.2742,0.2739,0.2719,0.2719,0.2717,0.2704,0.2693,0.27,0.2692,0.268,0.2695,0.2678,0.2678,0.2709,0.2714,0.2717,0.272,0.2767,0.2776,0.2783,0,0,0,0,0,0,0.2768,0.2747,0.2738,0.2733,0.2731,0.2715,0.272,0.271,0.2708,0.2708,0.2691,0.2689,0.2719,0.2704,0.2686,0.2735,0.2706,0.2709,0.2741,0.275,0.2756,0.277,0.2664,0,0,0,0,0,0.2772,0.2765,0.2752,0.275,0.275,0.2737,0.2736,0.2729,0.2723,0.2721,0.2715,0.2716,0.2732,0.2731,0.2743,0.2757,0.2767,0.278,0.2787,0.2793,0.2805,0.2854,0.2866,0.2733,0.2733,0.2733,0,0,0.2778,0.2768,0.2763,0.2754,0.275,0.2756,0.2735,0.274,0.2749,0.2722,0.2737,0.2745,0.2745,0.2771,0.2782,0.2759,0.2835,0.2797,0.2802,0.2811,0.2859,0.2872,0.2883,0.2735,0.2734,0.2734,0,0,0.2789,0.278,0.2778,0.278,0.2779,0.2777,0.2781,0.2774,0.2777,0.2788,0.2786,0.2811,0.2811,0.2829,0.2834,0.2884,0.2879,0.2887,0.292,0.2968,0.2979,0.2989,0.3012,0.3024,0.2879,0.2879,0.2879,0,0.28,0.2789,0.2781,0.2786,0.2789,0.2788,0.2795,0.2804,0.2804,0.2816,0.2801,0.2844,0.2844,0.289,0.2908,0.2902,0.2917,0.2886,0.2977,0.2987,0.2997,0.3017,0.303,0.2882,0.2882,0.2881,0.2881,0,0.2804,0.2804,0.2809,0.281,0.2818,0.2827,0.2836,0.2856,0.2859,0.2866,0.2913,0.292,0.2943,0.2954,0.2943,0.3016,0.3001,0.2989,0.2955,0.3014,0.3031,0.3043,0.2886,0.2885,0.2884,0.2884,0,0,0.28,0.2808,0.2809,0.2814,0.2829,0.2834,0.287,0.2896,0.2928,0.2942,0.2986,0.3018,0.3027,0.3036,0.3039,0.3076,0.3153,0.306,0.3061,0.3081,0.3246,0.317,0.3175,0.3157,0.316,0.3162,0.3228,0,0.2804,0.2809,0.2817,0.2836,0.2839,0.2864,0.2897,0.2928,0.2958,0.3008,0.3037,0.3082,0.3056,0.3079,0.3115,0.3159,0.3189,0.3136,0.3188,0.319,0.3115,0.3188,0.3003,0.3042,0.324,0.3242,0.3243,0,0.2794,0.28,0.2807,0.2842,0.2849,0.2867,0.2922,0.2958,0.3036,0.3063,0.3115,0.3142,0.3212,0.318,0.3268,0.3235,0.3246,0.3265,0.3268,0.3189,0.3137,0.3018,0.3056,0.2986,0.3261,0.326,0.3259,0,0.2765,0.2793,0.2796,0.2804,0.2846,0.2866,0.2901,0.2968,0.3009,0.311,0.3156,0.3228,0.3275,0.3317,0.3344,0.3319,0.3435,0.3401,0.3338,0.3332,0.3181,0.3157,0.3155,0.3462,0.3462,0.3462,0.3462,0,0.2749,0.2755,0.2783,0.2783,0.2811,0.285,0.2898,0.2955,0.3041,0.3106,0.3182,0.3245,0.3315,0.3377,0.3388,0.3403,0.3467,0.3366,0.3356,0.3191,0.3169,0.3104,0.3086,0.3464,0.3464,0.3463,0.3463,0,0.2706,0.2723,0.2732,0.2774,0.279,0.2809,0.2881,0.2922,0.3021,0.3115,0.3153,0.3276,0.3365,0.3413,0.3494,0.345,0.3373,0.346,0.325,0.3214,0.3063,0.3054,0.2934,0.285,0.3405,0.3403,0.3402,0,0.268,0.2677,0.2711,0.2716,0.2731,0.2769,0.2797,0.2894,0.2945,0.3124,0.3168,0.3294,0.3356,0.3441,0.34,0.3403,0.3327,0.3229,0.3146,0.3049,0.3034,0.2918,0.2848,0.2965,0.2961,0.2957,0.2954,0,0.2639,0.2648,0.2656,0.2666,0.2683,0.2709,0.2764,0.28,0.2935,0.3021,0.3145,0.3217,0.3294,0.3218,0.3219,0.3194,0.3052,0.3151,0.3111,0.2748,0.2562,0.2475,0.2923,0.2921,0.2924,0.2926,0.2928,0.293,0.2608,0.26,0.2609,0.261,0.2627,0.2637,0.2634,0.2707,0.2777,0.2871,0.3019,0.305,0.3051,0.3018,0.2981,0.2794,0.2823,0.2678,0.2695,0.26,0.2453,0.2822,0.2771,0.2773,0.2775,0.2777,0.2779,0,0.2558,0.2553,0.2555,0.2543,0.2521,0.256,0.2596,0.2577,0.2612,0.2698,0.2767,0.2738,0.2648,0.2628,0.2472,0.2348,0.2226,0.2291,0.2092,0.2064,0.2442,0.2357,0.2139,0.2139,0.2139,0.2139,0.2139,0.2139,0.2535,0.2504,0.2495,0.2435,0.2425,0.2364,0.236,0.2354,0.2376,0.2342,0.23,0.2327,0.2382,0.229,0.2115,0.2052,0.1909,0.1775,0.1849,0.213,0.2167,0.2202,0.2118,0.1853,0.1853,0.1318,0.1314,0.1311]},{"header":{"parameterUnit":"m.s-1","parameterCategory":2,"la1":30.2991,"la2":30.254,"lo1":-89.0895,"lo2":-89.0444,"dy":0.0017,"dx":0.0017,"nx":28,"ny":28,"refTime":"2025-11-06T03:00:00:Z","depth":"0","parameterNumber":3,"parameterNumberName":"V-component_of_CURRENTS"},"data":[0,0,0,0,0,0,0,0,0,0,0,0,0,0,0,0,0,0,0,0,0,0,0,0,0,0,0,0,0,0,0,0,0,0,0,0,0,0,0,0,0,0,0,0,0,0,0,0,0,0,0,0,0,0,0,0,0,0,0.0382,0.0382,0,0.0363,0.0363,0.0362,0.0343,0.0343,0.0342,0.0342,0.0319,0.0319,0.0318,0,0,0,0,0,0,0,0,0,0,0,0,0,0.0365,0.0365,0.0382,0.0382,0.0382,0.0363,0.0363,0.0362,0.0343,0.0343,0.0342,0.0342,0.0319,0.0319,0.0318,0,0,0,0,0,0,0,0,0,0,0,0,0,0.036,0.0365,0.0382,0.0371,0.037,0.0363,0.0363,0.0362,0.0343,0.0343,0.0342,0.0342,0.032,0.0319,0.0318,0.0318,0,0,0.0316,0.0316,0,0,0,0,0,0,0,0,0.0361,0.0361,0.0372,0.0371,0.037,0.0356,0.0348,0.0348,0.0343,0.0352,0.0342,0.0342,0.0332,0.0331,0.0326,0.0317,0.0316,0.0316,0.0316,0.0315,0.0315,0,0,0,0,0,0,0,0.0361,0.0361,0.0373,0.0372,0.0371,0.0354,0.0353,0.0348,0.0342,0.0351,0.035,0.035,0.0331,0.0326,0.0325,0.0316,0.0316,0.0315,0.0315,0.0315,0.0312,0.0312,0,0,0,0,0,0,0.0368,0.0362,0.0374,0.0373,0.0366,0.0355,0.0354,0.036,0.0342,0.034,0.035,0.0349,0.0328,0.0326,0.0324,0.0342,0.0315,0.0315,0.0314,0.0312,0.0312,0.0312,0,0,0,0,0,0,0.0368,0.037,0.0375,0.0367,0.0367,0.0356,0.0362,0.036,0.0356,0.0342,0.0339,0.035,0.0327,0.0325,0.0324,0.034,0.0314,0.0314,0.0311,0.0312,0.0312,0.0365,0,0,0,0,0,0,0.0368,0.037,0.0374,0.0368,0.0368,0.0377,0.0362,0.0359,0.0357,0.0356,0.0341,0.0338,0.0327,0.0325,0.0324,0.0339,0.0313,0.0311,0.0312,0.0312,0.0363,0.0368,0.0371,0,0,0,0,0,0.0367,0.038,0.0375,0.0376,0.0375,0.0378,0.0376,0.0366,0.0358,0.0361,0.035,0.0339,0.0328,0.0325,0.0323,0.0338,0.0311,0.0311,0.0312,0.0361,0.0367,0.0371,0,0,0,0,0,0,0.0374,0.0379,0.0373,0.0386,0.0384,0.0375,0.0378,0.0369,0.0363,0.0361,0.0344,0.0342,0.0346,0.0333,0.033,0.0338,0.0317,0.0317,0.0355,0.036,0.0364,0.0381,0.0313,0,0,0,0,0,0.0378,0.0389,0.0387,0.0396,0.0398,0.0387,0.0386,0.0379,0.0374,0.037,0.0364,0.0353,0.0347,0.0346,0.0338,0.0344,0.0329,0.0351,0.0355,0.0359,0.037,0.0363,0.0368,0.0315,0.0315,0.0315,0,0,0.0381,0.0386,0.0392,0.0398,0.0395,0.041,0.0386,0.0389,0.0401,0.0369,0.0385,0.0368,0.0351,0.0358,0.0359,0.035,0.0364,0.036,0.0364,0.0373,0.0364,0.0369,0.0374,0.0316,0.0316,0.0315,0,0,0.0402,0.0401,0.042,0.0425,0.0427,0.0424,0.0428,0.0425,0.0422,0.0428,0.0411,0.0406,0.0397,0.0393,0.0387,0.0409,0.0385,0.0403,0.044,0.0433,0.0438,0.0442,0.0421,0.0422,0.0406,0.0407,0.0407,0,0.0406,0.0434,0.0424,0.0446,0.0458,0.0436,0.0462,0.0457,0.0454,0.0463,0.044,0.0438,0.0416,0.0434,0.0434,0.0421,0.0406,0.0425,0.044,0.0444,0.0447,0.0424,0.0425,0.0409,0.0409,0.0409,0.0408,0,0.0446,0.0467,0.048,0.0505,0.0513,0.053,0.0528,0.0535,0.0525,0.0524,0.0533,0.0502,0.0502,0.049,0.0465,0.0482,0.046,0.0446,0.0431,0.0455,0.043,0.043,0.0413,0.0412,0.0411,0.0411,0,0,0.0461,0.0501,0.0506,0.0534,0.0548,0.0564,0.0584,0.0605,0.0634,0.0611,0.0646,0.0612,0.0593,0.0584,0.0554,0.0541,0.0534,0.0503,0.0501,0.0488,0.0509,0.0485,0.0483,0.0523,0.0523,0.0524,0.0479,0,0.0497,0.0556,0.0564,0.0621,0.0654,0.0649,0.068,0.0692,0.0691,0.0718,0.0681,0.0699,0.0629,0.0634,0.0606,0.0563,0.0538,0.0547,0.0482,0.048,0.0462,0.0484,0.0508,0.047,0.0479,0.0479,0.0479,0,0.0538,0.0576,0.0637,0.0698,0.0713,0.0743,0.0794,0.0818,0.0838,0.0838,0.0833,0.0807,0.0788,0.0724,0.065,0.0659,0.0585,0.0539,0.0536,0.0499,0.0458,0.0447,0.0469,0.0402,0.0479,0.0479,0.0479,0,0.0568,0.0631,0.0686,0.0705,0.0763,0.0796,0.0829,0.086,0.0902,0.0923,0.0958,0.0912,0.0909,0.0817,0.0699,0.068,0.0615,0.0579,0.0485,0.0481,0.0482,0.0479,0.044,0.0523,0.0523,0.0523,0.0523,0,0.0612,0.0657,0.0709,0.0743,0.0823,0.0844,0.093,0.0951,0.1005,0.1085,0.1027,0.1077,0.0933,0.0874,0.0745,0.062,0.0646,0.05,0.0476,0.0499,0.0498,0.0422,0.0372,0.0521,0.0522,0.0522,0.0522,0,0.0641,0.0669,0.0743,0.0814,0.0842,0.0902,0.1005,0.1069,0.1108,0.121,0.1227,0.1205,0.1133,0.0973,0.0832,0.0696,0.0524,0.0515,0.0542,0.0523,0.0366,0.0318,0.023,0.0189,0.0411,0.041,0.0409,0,0.0663,0.0702,0.0794,0.0846,0.0884,0.0975,0.1047,0.1112,0.1193,0.1306,0.1367,0.1329,0.1328,0.1095,0.0851,0.0623,0.0516,0.048,0.0444,0.0371,0.0299,0.0257,0.0226,0.0458,0.0458,0.0458,0.0458,0,0.0708,0.0737,0.0797,0.0903,0.0986,0.1089,0.12,0.1281,0.1384,0.1487,0.1607,0.1621,0.1405,0.1197,0.0863,0.0695,0.0439,0.0469,0.0398,0.0341,0.029,0.0236,0.0461,0.0457,0.0457,0.0457,0.0457,0.0457,0.0739,0.0787,0.0865,0.0969,0.1064,0.1193,0.1295,0.1434,0.1591,0.176,0.1768,0.1811,0.1507,0.1065,0.0834,0.0441,0.0425,0.033,0.0278,0.0242,0.0206,0.0419,0.0386,0.0385,0.0385,0.0385,0.0385,0,0.0775,0.0834,0.0929,0.1053,0.116,0.121,0.139,0.1514,0.1719,0.1857,0.1965,0.183,0.1477,0.1081,0.0561,0.0312,0.021,0.0178,0.0139,0.0115,0.0318,0.0326,0.0273,0.0273,0.0273,0.0273,0.0273,0.0274,0.0796,0.088,0.093,0.1105,0.12,0.1361,0.1469,0.1665,0.18,0.1975,0.1995,0.1983,0.1704,0.0835,0.0294,0.0166,0.0014,-0.0034,-0.0116,0.0043,0.0054,0.0064,0.0061,-0.0045,-0.0046,-0.0277,-0.0279,-0.0281]}],[{"header":{"parameterUnit":"m.s-1","parameterCategory":2,"la1":30.2991,"la2":30.254,"lo1":-89.0895,"lo2":-89.0444,"dy":0.0017,"dx":0.0017,"nx":28,"ny":28,"refTime":"2025-11-06T03:00:00:Z","depth":"2","parameterNumber":2,"parameterNumberName":"U-component_of_CURRENTS"},"data":[0,0,0,0,0,0,0,0,0,0,0,0,0,0,0,0,0,0,0,0,0,0,0,0,0,0,0,0,0,0,0,0,0,0,0,0,0,0,0,0,0,0,0,0,0,0,0,0,0,0,0,0,0,0,0,0,0,0,0.2396,0.2396,0,0.2387,0.2387,0.2387,0.2378,0.2378,0.2378,0.2378,0.2378,0.2378,0.2378,0,0,0,0,0,0,0,0,0,0,0,0,0,0.2412,0.2412,0.2396,0.2396,0.2396,0.2387,0.2387,0.2387,0.2378,0.2378,0.2378,0.2378,0.2379,0.2378,0.2378,0,0,0,0,0,0,0,0,0,0,0,0,0,0.2403,0.2412,0.2396,0.2392,0.2392,0.2387,0.2387,0.2387,0.2378,0.2378,0.2378,0.2379,0.2379,0.2378,0.2378,0.2376,0,0,0.2378,0.2378,0,0,0,0,0,0,0,0,0.2403,0.2402,0.2393,0.2393,0.2392,0.2386,0.2393,0.2384,0.2378,0.2382,0.2378,0.2379,0.2383,0.2382,0.2378,0.2376,0.2376,0.2378,0.2378,0.2378,0.2378,0,0,0,0,0,0,0,0.2404,0.2402,0.2391,0.2393,0.2393,0.2394,0.2392,0.2391,0.238,0.2381,0.2381,0.2383,0.2383,0.2378,0.2378,0.2376,0.2378,0.2378,0.2378,0.2378,0.2428,0.2429,0,0,0,0,0,0,0.2408,0.2403,0.2391,0.2391,0.24,0.2393,0.2391,0.2386,0.238,0.238,0.2383,0.2383,0.2378,0.2378,0.2378,0.2422,0.2378,0.2378,0.2378,0.2427,0.2428,0.243,0,0,0,0,0,0,0.2409,0.2407,0.2391,0.2399,0.2397,0.2393,0.2387,0.2386,0.2393,0.2382,0.2381,0.2393,0.2378,0.2378,0.2392,0.2421,0.2378,0.2378,0.2425,0.2427,0.2429,0.2481,0,0,0,0,0,0,0.2409,0.2407,0.241,0.2399,0.2397,0.24,0.2387,0.2386,0.2395,0.2394,0.239,0.2389,0.2378,0.2393,0.2392,0.242,0.2378,0.2423,0.2426,0.2428,0.2478,0.2485,0.2491,0,0,0,0,0,0.2409,0.2412,0.241,0.241,0.2399,0.2401,0.24,0.2396,0.2395,0.2403,0.2403,0.239,0.2409,0.2393,0.2393,0.2421,0.2422,0.2425,0.2428,0.2475,0.2483,0.2491,0,0,0,0,0,0,0.2421,0.2411,0.2409,0.2409,0.2412,0.2401,0.2408,0.2406,0.241,0.2415,0.2401,0.2401,0.2431,0.2417,0.24,0.2445,0.2416,0.242,0.2452,0.246,0.2467,0.2478,0.2378,0,0,0,0,0,0.2426,0.2424,0.2419,0.2421,0.2425,0.242,0.2422,0.2422,0.2422,0.2424,0.2423,0.2428,0.2441,0.2443,0.2452,0.2466,0.2474,0.2487,0.2494,0.2499,0.2509,0.2554,0.2565,0.244,0.244,0.244,0,0,0.243,0.2426,0.2425,0.2424,0.2425,0.2433,0.2421,0.2432,0.2444,0.2424,0.2445,0.2455,0.2453,0.2478,0.2489,0.2469,0.2539,0.2503,0.2508,0.2515,0.2558,0.257,0.2581,0.2442,0.2442,0.2442,0,0,0.2437,0.2438,0.2439,0.2445,0.2454,0.2453,0.2461,0.2464,0.2471,0.2489,0.2489,0.2516,0.252,0.2532,0.2536,0.2583,0.2579,0.2588,0.2621,0.2664,0.2675,0.2685,0.2707,0.2718,0.2583,0.2583,0.2583,0,0.2446,0.2443,0.2443,0.2451,0.2457,0.2466,0.2474,0.2486,0.2495,0.2511,0.2505,0.255,0.2548,0.2587,0.2606,0.2599,0.2617,0.2589,0.2673,0.2683,0.2692,0.2712,0.2724,0.2586,0.2585,0.2585,0.2585,0,0.2449,0.2456,0.2462,0.2471,0.2481,0.2494,0.2508,0.2532,0.2546,0.2558,0.2608,0.2615,0.2641,0.265,0.264,0.2706,0.2696,0.2684,0.2653,0.2708,0.2725,0.2736,0.259,0.2589,0.2588,0.2587,0,0,0.2442,0.2459,0.2462,0.247,0.2493,0.2499,0.2536,0.2566,0.26,0.2625,0.2671,0.2701,0.2718,0.2725,0.2728,0.2762,0.2836,0.2752,0.2753,0.2772,0.2926,0.2848,0.2852,0.2843,0.2845,0.2847,0.2911,0,0.2445,0.2456,0.2468,0.2489,0.2495,0.2525,0.2558,0.2593,0.2629,0.2682,0.2714,0.2761,0.2741,0.2769,0.2802,0.2839,0.2869,0.2819,0.2871,0.2872,0.2796,0.2864,0.2601,0.2631,0.2922,0.2924,0.2925,0,0.2436,0.2446,0.2458,0.2494,0.2503,0.2524,0.2583,0.2619,0.2699,0.2733,0.2789,0.2819,0.2886,0.2861,0.2942,0.2914,0.2927,0.2943,0.2946,0.2864,0.2815,0.2625,0.264,0.2944,0.2942,0.2941,0.294,0,0.2407,0.2438,0.2446,0.2456,0.2501,0.2526,0.2564,0.2635,0.2674,0.2779,0.2826,0.2898,0.2947,0.2988,0.3014,0.2994,0.3098,0.3068,0.3005,0.2998,0.278,0.275,0.3126,0.3126,0.3125,0.3125,0.3125,0,0.239,0.2399,0.2436,0.244,0.2472,0.2514,0.2569,0.2626,0.2712,0.2771,0.2854,0.2907,0.2986,0.3044,0.3055,0.3067,0.3128,0.303,0.302,0.2789,0.2761,0.3031,0.302,0.3128,0.3127,0.3127,0.3126,0,0.2348,0.2371,0.2385,0.2434,0.2454,0.248,0.2558,0.2597,0.2697,0.2783,0.2822,0.2936,0.302,0.3074,0.315,0.3109,0.3133,0.3114,0.2829,0.2786,0.2993,0.2983,0.3061,0.3059,0.3057,0.3056,0.3054,0,0.2324,0.2326,0.237,0.238,0.2402,0.245,0.2481,0.2577,0.2619,0.2784,0.2814,0.294,0.2987,0.3068,0.3036,0.3044,0.3116,0.2796,0.2706,0.3009,0.2992,0.2985,0.2978,0.2434,0.2428,0.2423,0.2419,0,0.2283,0.2301,0.2313,0.2334,0.2359,0.2385,0.244,0.2465,0.2589,0.2658,0.2746,0.2805,0.2892,0.2779,0.2802,0.2766,0.2776,0.2693,0.3097,0.2493,0.2424,0.2406,0.2418,0.2374,0.2378,0.2382,0.2384,0.2386,0.2254,0.2249,0.2267,0.2277,0.2299,0.2299,0.2295,0.2345,0.2388,0.2457,0.2588,0.2592,0.2613,0.2515,0.2427,0.2353,0.2551,0.2415,0.2428,0.2447,0.2365,0.2296,0.2207,0.221,0.2213,0.2216,0.2218,0,0.2204,0.2202,0.2208,0.2201,0.2173,0.223,0.2244,0.2201,0.2192,0.2277,0.2319,0.214,0.2061,0.2089,0.1897,0.1881,0.1839,0.1801,0.1718,0.1765,0.1806,0.1688,0.1352,0.135,0.1347,0.1345,0,0,0.2179,0.2149,0.2138,0.2068,0.2071,0.2015,0.2002,0.195,0.1954,0.1895,0.1873,0.2023,0.2058,0.1711,0.1638,0.1464,0.1609,0.1399,0.2095,0.2048,0.2086,0.2162,0.2035,0,0,0,0,0]},{"header":{"parameterUnit":"m.s-1","parameterCategory":2,"la1":30.2991,"la2":30.254,"lo1":-89.0895,"lo2":-89.0444,"dy":0.0017,"dx":0.0017,"nx":28,"ny":28,"refTime":"2025-11-06T03:00:00:Z","depth":"2","parameterNumber":3,"parameterNumberName":"V-component_of_CURRENTS"},"data":[0,0,0,0,0,0,0,0,0,0,0,0,0,0,0,0,0,0,0,0,0,0,0,0,0,0,0,0,0,0,0,0,0,0,0,0,0,0,0,0,0,0,0,0,0,0,0,0,0,0,0,0,0,0,0,0,0,0,0.0226,0.0226,0,0.0209,0.0209,0.0209,0.0196,0.0196,0.0196,0.0196,0.0174,0.0173,0.0172,0,0,0,0,0,0,0,0,0,0,0,0,0,0.0208,0.0208,0.0226,0.0226,0.0226,0.0209,0.0209,0.0209,0.0196,0.0196,0.0196,0.0196,0.0174,0.0173,0.0172,0,0,0,0,0,0,0,0,0,0,0,0,0,0.0205,0.0208,0.0226,0.0218,0.0217,0.021,0.0209,0.0209,0.0196,0.0196,0.0196,0.0196,0.0174,0.0173,0.0172,0.0167,0,0,0.017,0.0169,0,0,0,0,0,0,0,0,0.0205,0.0205,0.0219,0.0219,0.0218,0.0206,0.0195,0.0195,0.0196,0.0203,0.0196,0.0196,0.0185,0.0183,0.0178,0.0166,0.0165,0.0169,0.0169,0.0169,0.0168,0,0,0,0,0,0,0,0.0205,0.0206,0.0218,0.0219,0.0218,0.0203,0.0202,0.0194,0.0193,0.0202,0.0201,0.0202,0.0184,0.0179,0.0177,0.0165,0.0169,0.0169,0.0168,0.0168,0.0159,0.016,0,0,0,0,0,0,0.0212,0.0206,0.0219,0.0218,0.0213,0.0203,0.0203,0.0209,0.0193,0.0191,0.0202,0.0201,0.018,0.0178,0.0177,0.0191,0.0169,0.0168,0.0167,0.0159,0.0159,0.016,0,0,0,0,0,0,0.0212,0.0214,0.0219,0.0212,0.0212,0.0204,0.021,0.0208,0.0207,0.0193,0.0191,0.0203,0.018,0.0178,0.0177,0.0189,0.0167,0.0167,0.0159,0.0159,0.0159,0.0206,0,0,0,0,0,0,0.0212,0.0214,0.0218,0.0213,0.0213,0.0221,0.021,0.0208,0.0208,0.0207,0.0193,0.0191,0.018,0.0178,0.0176,0.0188,0.0166,0.0158,0.0159,0.0159,0.0205,0.0208,0.0212,0,0,0,0,0,0.0211,0.0221,0.0218,0.022,0.022,0.0221,0.022,0.0213,0.0208,0.021,0.0203,0.0192,0.018,0.0178,0.0175,0.0187,0.0158,0.0159,0.0159,0.0203,0.0208,0.0212,0,0,0,0,0,0,0.0213,0.022,0.0218,0.0228,0.0227,0.022,0.0222,0.0216,0.0211,0.0211,0.0196,0.0194,0.0197,0.0184,0.0182,0.0185,0.0167,0.0167,0.0201,0.0205,0.0209,0.0222,0.0165,0,0,0,0,0,0.0216,0.0227,0.0227,0.0235,0.0237,0.023,0.0229,0.0224,0.022,0.0218,0.0212,0.0203,0.0196,0.0195,0.0186,0.0189,0.0173,0.0194,0.0197,0.0201,0.0209,0.0196,0.02,0.0162,0.0162,0.0162,0,0,0.0218,0.0224,0.0229,0.0236,0.0235,0.0248,0.0229,0.0233,0.0243,0.0216,0.0231,0.0216,0.0199,0.0204,0.0204,0.0196,0.0201,0.0202,0.0205,0.0211,0.0197,0.0201,0.0204,0.0162,0.0162,0.0162,0,0,0.0234,0.0235,0.0252,0.0257,0.0261,0.0259,0.0263,0.0262,0.0261,0.0266,0.0252,0.0247,0.0238,0.0233,0.0226,0.0244,0.022,0.0239,0.0271,0.0259,0.0262,0.0264,0.0242,0.0243,0.0242,0.0242,0.0242,0,0.0235,0.026,0.0255,0.0274,0.0285,0.027,0.0292,0.0288,0.0287,0.0295,0.0278,0.0272,0.0253,0.0264,0.0266,0.0254,0.0238,0.0257,0.0264,0.0267,0.0268,0.0245,0.0245,0.0245,0.0244,0.0244,0.0244,0,0.0267,0.0287,0.0298,0.0322,0.033,0.0345,0.0345,0.0352,0.0346,0.0346,0.0353,0.0325,0.0324,0.0313,0.0293,0.0302,0.0283,0.027,0.0256,0.0275,0.0249,0.0248,0.0248,0.0247,0.0247,0.0246,0,0,0.0277,0.0314,0.0319,0.0345,0.0359,0.0373,0.0391,0.041,0.0435,0.0416,0.0444,0.0415,0.0399,0.039,0.0364,0.0348,0.0337,0.0316,0.0315,0.0299,0.0303,0.0282,0.0278,0.0326,0.0326,0.0326,0.0277,0,0.0306,0.0357,0.0365,0.0415,0.0444,0.0443,0.0469,0.0481,0.0482,0.0504,0.0471,0.0485,0.0429,0.0433,0.0405,0.0363,0.0337,0.0351,0.0283,0.0281,0.0263,0.0277,0.0289,0.0246,0.0276,0.0276,0.0276,0,0.034,0.0373,0.0426,0.0479,0.0492,0.0519,0.0564,0.0585,0.0602,0.0603,0.0598,0.0575,0.0554,0.0502,0.0429,0.0441,0.0374,0.033,0.0327,0.0292,0.0258,0.0232,0.0243,0.0274,0.0274,0.0274,0.0274,0,0.0364,0.0418,0.0466,0.0483,0.0535,0.0563,0.0593,0.0621,0.0658,0.0675,0.0703,0.066,0.0655,0.0569,0.0463,0.0451,0.0377,0.035,0.0264,0.0261,0.0251,0.0247,0.0293,0.0293,0.0293,0.0293,0.0293,0,0.04,0.0439,0.0486,0.0516,0.0586,0.0605,0.0681,0.07,0.0745,0.0811,0.0761,0.0793,0.0673,0.0614,0.0498,0.0381,0.0401,0.0274,0.0252,0.0266,0.0264,0.0272,0.0271,0.0291,0.0292,0.0292,0.0292,0,0.0423,0.0449,0.0513,0.0576,0.0602,0.0655,0.0748,0.0804,0.0836,0.0918,0.0932,0.0901,0.0832,0.0696,0.0563,0.0441,0.0323,0.0272,0.029,0.0271,0.0203,0.0204,0.0177,0.0176,0.0175,0.0174,0.0174,0,0.044,0.0475,0.0558,0.0607,0.0642,0.0725,0.079,0.0845,0.0912,0.0992,0.1036,0.0997,0.0982,0.0767,0.0562,0.0363,0.0326,0.0221,0.0196,0.0213,0.0193,0.0196,0.0198,0.0194,0.0194,0.0194,0.0193,0,0.0476,0.0504,0.0558,0.0658,0.0733,0.0826,0.0923,0.0989,0.1071,0.1141,0.1213,0.1208,0.1026,0.0831,0.0552,0.0406,0.0253,0.0207,0.0233,0.0223,0.0225,0.0207,0.021,0.019,0.0191,0.0191,0.0191,0.0191,0.0502,0.0545,0.0618,0.0713,0.0802,0.0915,0.1005,0.1108,0.1223,0.1338,0.1329,0.1324,0.1104,0.0755,0.0508,0.0241,0.026,0.0143,0.0146,0.0149,0.0161,0.0161,0.0116,0.0116,0.0116,0.0116,0.0116,0,0.0533,0.0585,0.0671,0.0783,0.0881,0.0934,0.1084,0.1171,0.1311,0.1411,0.1469,0.1251,0.1038,0.0777,0.0396,0.0165,0.0144,0.0069,0.0099,0.0104,0.0108,0.0119,0.0062,0.0061,0.006,0.006,0,0,0.0551,0.0626,0.0667,0.082,0.0912,0.1055,0.1148,0.1273,0.1366,0.145,0.1459,0.1444,0.1129,0.0835,0.0523,0.0298,0.0249,0.0241,0.031,0.0388,0.0394,0.0176,0.0202,0,0,0,0,0]}],[{"header":{"parameterUnit":"m.s-1","parameterCategory":2,"la1":30.2991,"la2":30.254,"lo1":-89.0895,"lo2":-89.0444,"dy":0.0017,"dx":0.0017,"nx":28,"ny":28,"refTime":"2025-11-06T03:00:00:Z","depth":"4","parameterNumber":2,"parameterNumberName":"U-component_of_CURRENTS"},"data":[0,0,0,0,0,0,0,0,0,0,0,0,0,0,0,0,0,0,0,0,0,0,0,0,0,0,0,0,0,0,0,0,0,0,0,0,0,0,0,0,0,0,0,0,0,0,0,0,0,0,0,0,0,0,0,0,0,0,0.1513,0.1513,0,0.1546,0.1546,0.1547,0.1586,0.1587,0.1588,0.1589,0.1634,0.1635,0.1635,0,0,0,0,0,0,0,0,0,0,0,0,0,0.1472,0.1472,0.1512,0.1513,0.1514,0.1546,0.1546,0.1547,0.1586,0.1587,0.1588,0.1589,0.1634,0.1634,0.1635,0,0,0,0,0,0,0,0,0,0,0,0,0,0.1494,0.1473,0.1512,0.1539,0.1542,0.1546,0.1546,0.1547,0.1586,0.1587,0.1588,0.159,0.1634,0.1634,0.1635,0.1615,0,0,0.1637,0.1637,0,0,0,0,0,0,0,0,0.1493,0.1495,0.1534,0.1537,0.154,0.1565,0.1549,0.1571,0.1586,0.1567,0.1589,0.159,0.1613,0.1615,0.1616,0.1617,0.1619,0.1637,0.1638,0.1638,0.1638,0,0,0,0,0,0,0,0.1491,0.1494,0.1524,0.1535,0.1539,0.1546,0.155,0.1553,0.1581,0.1569,0.1572,0.1579,0.1614,0.1615,0.1617,0.162,0.1637,0.1638,0.1638,0.1639,0.1714,0.1716,0,0,0,0,0,0,0.149,0.1492,0.1523,0.1525,0.1521,0.1546,0.155,0.1554,0.1581,0.1587,0.1578,0.1581,0.1613,0.1616,0.1619,0.1688,0.1638,0.1639,0.1639,0.1712,0.1714,0.1716,0,0,0,0,0,0,0.1489,0.1493,0.1521,0.1511,0.1516,0.1545,0.1549,0.1554,0.159,0.1588,0.1594,0.1612,0.1614,0.1618,0.1655,0.1687,0.1639,0.164,0.1711,0.1713,0.1715,0.1769,0,0,0,0,0,0,0.1488,0.1492,0.151,0.1511,0.1516,0.1546,0.1548,0.1554,0.1591,0.1596,0.1619,0.1622,0.1615,0.1654,0.1655,0.1687,0.164,0.1709,0.1712,0.1714,0.1765,0.1773,0.1779,0,0,0,0,0,0.1486,0.1499,0.1511,0.1516,0.1535,0.1547,0.155,0.1573,0.1592,0.161,0.1632,0.1624,0.1674,0.1655,0.1657,0.169,0.1707,0.1711,0.1714,0.1762,0.1771,0.1779,0,0,0,0,0,0,0.1492,0.1505,0.1517,0.1535,0.1552,0.1555,0.1579,0.1592,0.1622,0.164,0.1638,0.1643,0.1691,0.1682,0.1662,0.1722,0.1691,0.1695,0.1727,0.1736,0.1743,0.1747,0.1641,0,0,0,0,0,0.1501,0.1518,0.1528,0.1548,0.156,0.1576,0.1592,0.1607,0.1626,0.1642,0.166,0.1681,0.1699,0.1713,0.1728,0.1753,0.1758,0.1778,0.1785,0.1791,0.1797,0.184,0.1852,0.1728,0.1728,0.1728,0,0,0.1509,0.152,0.1531,0.1552,0.1569,0.1585,0.1589,0.1622,0.1644,0.1641,0.1692,0.171,0.1714,0.175,0.177,0.1751,0.1829,0.1796,0.18,0.1803,0.1845,0.1857,0.1868,0.173,0.173,0.1729,0,0,0.1521,0.1546,0.1561,0.1578,0.161,0.1618,0.1635,0.1661,0.1687,0.1726,0.1737,0.1776,0.1802,0.1812,0.1817,0.1872,0.187,0.1884,0.1918,0.1961,0.1971,0.198,0.2,0.201,0.1883,0.1883,0.1883,0,0.1536,0.155,0.1569,0.1587,0.1606,0.1636,0.1655,0.1679,0.1718,0.1744,0.1755,0.1822,0.1828,0.1867,0.189,0.1888,0.1908,0.1883,0.197,0.1979,0.1988,0.2005,0.2016,0.1886,0.1885,0.1885,0.1885,0,0.1545,0.1572,0.1586,0.1617,0.1639,0.1665,0.1694,0.1736,0.1775,0.1798,0.1867,0.1885,0.1926,0.1936,0.1929,0.1994,0.1988,0.1978,0.1946,0.2003,0.2018,0.2029,0.189,0.1889,0.1888,0.1887,0,0,0.1533,0.1582,0.1592,0.1613,0.1659,0.1674,0.1725,0.1769,0.1815,0.1867,0.1926,0.1966,0.1997,0.2006,0.2014,0.2047,0.2121,0.2045,0.2045,0.206,0.2213,0.2054,0.205,0.2136,0.2138,0.214,0.2198,0,0.1539,0.1572,0.1598,0.164,0.1657,0.1706,0.1747,0.1799,0.1853,0.1921,0.1964,0.2025,0.2017,0.2055,0.2089,0.2122,0.2153,0.2106,0.2158,0.2159,0.2009,0.2058,0.2147,0.2205,0.2208,0.2209,0.2211,0,0.153,0.1556,0.1594,0.1652,0.1668,0.1705,0.1784,0.1829,0.1922,0.1971,0.2044,0.2085,0.2155,0.2141,0.2221,0.2199,0.2215,0.2227,0.2229,0.2069,0.202,0.2138,0.2229,0.2228,0.2226,0.2225,0.2224,0,0.1492,0.1551,0.1583,0.1602,0.1673,0.1715,0.1766,0.1853,0.19,0.202,0.2074,0.2158,0.2216,0.2261,0.229,0.2276,0.2367,0.2344,0.2211,0.22,0.2301,0.2291,0.2399,0.2399,0.2399,0.2399,0.2399,0,0.1464,0.1496,0.1577,0.1593,0.1648,0.1709,0.1783,0.185,0.1949,0.2004,0.2107,0.2155,0.2256,0.2311,0.2326,0.2295,0.2398,0.2222,0.2207,0.2322,0.2313,0.2308,0.2297,0.2401,0.2401,0.24,0.24,0,0.141,0.1463,0.1507,0.1596,0.1631,0.1675,0.1783,0.1826,0.194,0.2018,0.2063,0.2182,0.2252,0.2318,0.2391,0.2318,0.2318,0.228,0.24,0.239,0.2114,0.2105,0.2134,0.2129,0.2125,0.2121,0.2118,0,0.1378,0.1398,0.1501,0.1531,0.1578,0.1655,0.17,0.1814,0.1854,0.2005,0.2025,0.2144,0.2207,0.2182,0.2264,0.2278,0.2247,0.2222,0.216,0.2106,0.209,0.2087,0.2084,0.2111,0.211,0.2109,0.2108,0,0.1321,0.1377,0.1414,0.1475,0.1531,0.1574,0.165,0.1662,0.1785,0.1908,0.1938,0.197,0.204,0.2085,0.2112,0.2116,0.2225,0.2177,0.2185,0.2126,0.2079,0.2066,0.2068,0.2093,0.2095,0.2097,0.2097,0,0.1289,0.13,0.136,0.1399,0.1462,0.1464,0.1515,0.1551,0.1604,0.1761,0.1768,0.1896,0.2018,0.2001,0.2027,0.202,0.1982,0.1898,0.192,0.1937,0.1844,0.1754,0.1659,0,0,0,0,0,0.1244,0.1241,0.1272,0.1298,0.1351,0.1384,0.1463,0.1513,0.1631,0.1604,0.1677,0.1732,0.1765,0.1833,0.1786,0.1939,0.1992,0.1873,0.1906,0.2011,0.2028,0.1935,0,0,0,0,0,0,0.1211,0.1241,0.1237,0.1203,0.12,0.1237,0.1279,0.1357,0.1346,0.1482,0.1517,0.1619,0.1691,0.1784,0.1755,0.1773,0.1752,0.1956,0.195,0.2001,0.2017,0.203,0.1941,0,0,0,0,0]},{"header":{"parameterUnit":"m.s-1","parameterCategory":2,"la1":30.2991,"la2":30.254,"lo1":-89.0895,"lo2":-89.0444,"dy":0.0017,"dx":0.0017,"nx":28,"ny":28,"refTime":"2025-11-06T03:00:00:Z","depth":"4","parameterNumber":3,"parameterNumberName":"V-component_of_CURRENTS"},"data":[0,0,0,0,0,0,0,0,0,0,0,0,0,0,0,0,0,0,0,0,0,0,0,0,0,0,0,0,0,0,0,0,0,0,0,0,0,0,0,0,0,0,0,0,0,0,0,0,0,0,0,0,0,0,0,0,0,0,0.0151,0.0151,0,0.0143,0.0143,0.0142,0.0139,0.0139,0.0139,0.0139,0.0128,0.0127,0.0127,0,0,0,0,0,0,0,0,0,0,0,0,0,0.0135,0.0135,0.0151,0.0151,0.0151,0.0143,0.0143,0.0142,0.0139,0.0139,0.0139,0.0139,0.0128,0.0127,0.0127,0,0,0,0,0,0,0,0,0,0,0,0,0,0.0135,0.0135,0.0151,0.0148,0.0148,0.0143,0.0143,0.0142,0.0139,0.0139,0.0139,0.0139,0.0128,0.0128,0.0127,0.0121,0,0,0.0125,0.0125,0,0,0,0,0,0,0,0,0.0135,0.0135,0.0149,0.0149,0.0148,0.0143,0.0133,0.0135,0.0139,0.0141,0.0139,0.0139,0.0133,0.0132,0.0129,0.0121,0.012,0.0125,0.0125,0.0125,0.0125,0,0,0,0,0,0,0,0.0135,0.0136,0.0147,0.0149,0.0149,0.0138,0.0139,0.0133,0.0136,0.0141,0.0141,0.0141,0.0133,0.013,0.0129,0.012,0.0125,0.0125,0.0124,0.0124,0.0121,0.0122,0,0,0,0,0,0,0.0139,0.0136,0.0147,0.0147,0.0143,0.0139,0.0139,0.0144,0.0136,0.0135,0.0141,0.0141,0.013,0.0129,0.0128,0.0142,0.0125,0.0124,0.0124,0.0121,0.0121,0.0122,0,0,0,0,0,0,0.0139,0.014,0.0147,0.0141,0.0142,0.0139,0.0144,0.0143,0.0145,0.0136,0.0135,0.0144,0.0131,0.0129,0.0131,0.0141,0.0124,0.0123,0.0121,0.0121,0.0122,0.0156,0,0,0,0,0,0,0.0138,0.014,0.0144,0.0142,0.0142,0.015,0.0144,0.0143,0.0145,0.0145,0.0138,0.0137,0.0131,0.0132,0.0131,0.014,0.0123,0.0121,0.0121,0.0121,0.0155,0.0158,0.0161,0,0,0,0,0,0.0138,0.0145,0.0145,0.0146,0.0148,0.015,0.0149,0.0147,0.0145,0.0148,0.0145,0.0138,0.0134,0.0132,0.013,0.014,0.012,0.0121,0.0121,0.0154,0.0157,0.016,0,0,0,0,0,0,0.0138,0.0145,0.0145,0.0153,0.0154,0.015,0.0152,0.015,0.0149,0.015,0.0142,0.014,0.0145,0.0136,0.0134,0.0139,0.0126,0.0126,0.0151,0.0154,0.0157,0.0163,0.0123,0,0,0,0,0,0.0141,0.015,0.0151,0.0157,0.0159,0.0156,0.0156,0.0155,0.0154,0.0154,0.0152,0.0148,0.0145,0.0145,0.014,0.0144,0.0127,0.0148,0.015,0.0153,0.0156,0.0139,0.0141,0.0124,0.0124,0.0124,0,0,0.0142,0.0147,0.0152,0.0158,0.0159,0.0169,0.0157,0.016,0.017,0.0153,0.0166,0.0157,0.0147,0.0153,0.0154,0.0148,0.0148,0.0154,0.0156,0.0158,0.014,0.0142,0.0143,0.0124,0.0124,0.0124,0,0,0.0152,0.0155,0.0167,0.0172,0.0177,0.0177,0.018,0.0182,0.0183,0.019,0.0182,0.0179,0.0177,0.0173,0.017,0.0184,0.0162,0.0182,0.0204,0.0187,0.0188,0.0189,0.0166,0.0165,0.0185,0.0185,0.0185,0,0.0153,0.0171,0.0169,0.0184,0.0193,0.0185,0.0201,0.02,0.0203,0.0209,0.02,0.0198,0.0187,0.0195,0.0198,0.0191,0.0175,0.0193,0.0191,0.0192,0.0192,0.0168,0.0166,0.0187,0.0187,0.0186,0.0186,0,0.0174,0.0189,0.0197,0.0217,0.0224,0.0236,0.0239,0.0246,0.0246,0.0247,0.0253,0.0235,0.0236,0.0229,0.0218,0.0219,0.0204,0.0196,0.0184,0.0196,0.0169,0.0167,0.0189,0.0189,0.0188,0.0188,0,0,0.0176,0.0207,0.0211,0.023,0.0245,0.0255,0.0272,0.0287,0.0305,0.0295,0.0314,0.0297,0.0287,0.0282,0.0265,0.0247,0.023,0.0225,0.0223,0.0204,0.0188,0.017,0.0165,0.0222,0.0222,0.0222,0.0167,0,0.0195,0.0232,0.0241,0.0279,0.03,0.0304,0.0325,0.0336,0.034,0.0355,0.0331,0.0342,0.0308,0.0311,0.0287,0.025,0.0226,0.0245,0.0178,0.0175,0.016,0.0162,0.0221,0.0165,0.0165,0.0164,0.0164,0,0.0216,0.024,0.028,0.0322,0.0332,0.0355,0.039,0.0408,0.042,0.0423,0.0419,0.0403,0.0384,0.035,0.0285,0.03,0.0246,0.0208,0.0205,0.0175,0.0152,0.0151,0.0158,0.0159,0.0159,0.016,0.016,0,0.0226,0.0269,0.0304,0.0319,0.0361,0.0385,0.041,0.0433,0.0461,0.0471,0.0489,0.0455,0.045,0.038,0.0298,0.0294,0.0218,0.0202,0.0131,0.0128,0.0146,0.0145,0.0148,0.0148,0.0148,0.0148,0.0148,0,0.0246,0.0276,0.0317,0.034,0.0393,0.0412,0.047,0.0486,0.052,0.0563,0.0531,0.0545,0.0457,0.0404,0.0316,0.0217,0.023,0.0134,0.0115,0.0161,0.0163,0.0143,0.0143,0.0146,0.0146,0.0147,0.0147,0,0.0254,0.0279,0.0327,0.0379,0.0402,0.0442,0.0519,0.0561,0.0585,0.0637,0.0646,0.0617,0.0552,0.0451,0.0339,0.0251,0.0152,0.011,0.0166,0.0151,0.0066,0.0069,0.0027,0.0026,0.0025,0.0024,0.0024,0,0.0261,0.0286,0.0356,0.0395,0.0426,0.0492,0.0544,0.059,0.0638,0.0682,0.0707,0.0666,0.0631,0.0461,0.0342,0.0171,0.0139,0.0075,0.0066,0.0069,0.0055,0.0059,0.0063,0.0022,0.0022,0.0022,0.0022,0,0.0276,0.0302,0.0343,0.0423,0.0485,0.0559,0.0636,0.0674,0.0732,0.0753,0.0763,0.0683,0.0607,0.0468,0.0335,0.0209,0.0111,0.0065,0.0065,0.0056,0.0063,0.005,0.0055,0.0018,0.0019,0.0019,0.0019,0,0.0288,0.0318,0.0376,0.0448,0.0527,0.0607,0.0649,0.071,0.0756,0.0799,0.0799,0.0719,0.0675,0.0488,0.0366,0.0241,0.02,0.0138,0.0134,0.0136,0.0178,0.0202,0.0186,0,0,0,0,0,0.0299,0.0335,0.04,0.0481,0.0561,0.0611,0.0702,0.0739,0.0792,0.0805,0.0806,0.0737,0.0568,0.0497,0.037,0.0332,0.0167,0.0174,0.009,0.0001,0.0005,0.0033,0,0,0,0,0,0,0.0305,0.0361,0.0394,0.0495,0.0556,0.065,0.071,0.075,0.076,0.079,0.0708,0.0679,0.0519,0.0643,0.036,0.0324,0.0245,0.0103,0.0099,-0.0001,0.0002,0.0005,0.0035,0,0,0,0,0]}]]